Location: Unspecified
(0.0000°N, 0.0000°E)
Time: 23:52:35
(UTC+00:00)

deb NNS O-18 - Pass Details

Date: 09 November 2024
Orbit: 1009 x 1291 km, 89.8° (Epoch: 29 November)

Event Time Altitude Azimuth Distance (km) Brightness Sun altitude
Rises 03:48:00 0° 169° (SSE) 4,145 ? -27.6°
Reaches altitude 10° 03:50:48 10° 165° (SSE) 3,141 ? -26.9°
Maximum altitude 03:57:55 60° 86° (E) 1,296 ? -25.2°
Drops below altitude 10° 04:04:32 10° 8° (N) 2,932 ? -23.7°
Sets 04:07:03 0° 5° (N) 3,852 ? -23.1°
